Total_Precipitation_Accumulation
0.20 0.17 0.24 0.26 0.24 0.27 0.36 0.34 0.25 0.11 0.09 0.10 0.11 0.13 0.13 0.13 0.12 0.11 0.08 0.07 0.07 0.07 0.08 0.10 0.13 0.15 0.18 0.25 0.34 0.40 0.40 0.45 0.44 0.51 0.61 0.62 0.60 0.62 0.66 0.72 0.77 0.75 0.71 0.65
0.18 0.12 0.17 0.20 0.17 0.17 0.19 0.14 0.11 0.09 0.10 0.11 0.13 0.13 0.13 0.12 0.12 0.12 0.09 0.07 0.07 0.07 0.08 0.11 0.17 0.18 0.19 0.23 0.30 0.38 0.39 0.43 0.43 0.48 0.57 0.61 0.57 0.60 0.66 0.68 0.72 0.70 0.66 0.66
0.32 0.15 0.28 0.31 0.18 0.15 0.15 0.13 0.12 0.13 0.13 0.12 0.13 0.14 0.15 0.14 0.12 0.11 0.09 0.08 0.06 0.07 0.08 0.11 0.18 0.18 0.20 0.23 0.29 0.37 0.39 0.40 0.46 0.48 0.52 0.59 0.60 0.61 0.65 0.68 0.69 0.67 0.62 0.59
0.49 0.39 0.59 0.29 0.13 0.12 0.14 0.15 0.13 0.12 0.10 0.11 0.14 0.16 0.17 0.16 0.14 0.10 0.09 0.08 0.06 0.06 0.08 0.11 0.16 0.15 0.18 0.22 0.31 0.39 0.42 0.39 0.43 0.47 0.48 0.57 0.62 0.61 0.65 0.67 0.64 0.62 0.60 0.57
0.66 0.52 0.28 0.15 0.15 0.18 0.24 0.23 0.15 0.11 0.07 0.06 0.09 0.14 0.18 0.14 0.12 0.10 0.10 0.10 0.08 0.07 0.08 0.11 0.15 0.14 0.14 0.19 0.28 0.38 0.43 0.39 0.39 0.44 0.45 0.51 0.57 0.61 0.62 0.66 0.63 0.59 0.55 0.56
0.69 0.52 0.24 0.17 0.13 0.15 0.23 0.31 0.17 0.11 0.08 0.07 0.10 0.19 0.19 0.14 0.11 0.10 0.09 0.08 0.09 0.09 0.09 0.12 0.14 0.15 0.14 0.17 0.23 0.33 0.40 0.34 0.36 0.39 0.38 0.43 0.47 0.53 0.58 0.60 0.60 0.57 0.52 0.51
0.57 0.44 0.15 0.12 0.15 0.17 0.35 0.38 0.17 0.12 0.10 0.10 0.13 0.16 0.15 0.14 0.13 0.11 0.09 0.09 0.08 0.09 0.10 0.12 0.15 0.16 0.16 0.17 0.17 0.26 0.36 0.32 0.35 0.37 0.36 0.39 0.42 0.44 0.52 0.57 0.56 0.56 0.53 0.49
0.47 0.46 0.19 0.14 0.21 0.35 0.38 0.19 0.13 0.10 0.08 0.08 0.08 0.07 0.08 0.10 0.12 0.12 0.10 0.09 0.10 0.09 0.10 0.11 0.14 0.17 0.17 0.16 0.17 0.25 0.32 0.32 0.34 0.36 0.36 0.38 0.40 0.38 0.42 0.52 0.54 0.54 0.55 0.54
0.40 0.23 0.12 0.13 0.21 0.23 0.18 0.14 0.10 0.09 0.08 0.07 0.06 0.06 0.08 0.10 0.11 0.12 0.12 0.11 0.12 0.11 0.11 0.11 0.12 0.16 0.18 0.19 0.21 0.27 0.29 0.29 0.32 0.34 0.36 0.38 0.38 0.36 0.39 0.47 0.52 0.53 0.54 0.53
0.23 0.11 0.08 0.09 0.11 0.12 0.10 0.09 0.09 0.08 0.08 0.07 0.07 0.06 0.08 0.09 0.10 0.11 0.12 0.12 0.13 0.12 0.11 0.12 0.12 0.13 0.18 0.21 0.22 0.27 0.27 0.25 0.27 0.32 0.37 0.42 0.38 0.34 0.35 0.40 0.51 0.52 0.52 0.49
0.15 0.07 0.09 0.09 0.08 0.07 0.06 0.06 0.07 0.07 0.06 0.06 0.07 0.07 0.07 0.08 0.09 0.11 0.13 0.12 0.12 0.13 0.11 0.12 0.13 0.15 0.20 0.22 0.24 0.28 0.26 0.24 0.26 0.29 0.38 0.45 0.42 0.36 0.34 0.33 0.47 0.56 0.51 0.49
0.12 0.07 0.10 0.10 0.07 0.06 0.06 0.06 0.07 0.07 0.06 0.05 0.05 0.06 0.08 0.08 0.08 0.12 0.15 0.14 0.12 0.12 0.12 0.13 0.15 0.18 0.23 0.25 0.24 0.26 0.26 0.25 0.26 0.29 0.35 0.41 0.43 0.43 0.47 0.43 0.45 0.46 0.45 0.48
0.06 0.05 0.05 0.06 0.07 0.07 0.07 0.06 0.06 0.08 0.08 0.06 0.06 0.06 0.08 0.08 0.08 0.12 0.14 0.14 0.13 0.13 0.13 0.15 0.17 0.21 0.26 0.27 0.27 0.27 0.26 0.26 0.29 0.31 0.34 0.38 0.40 0.41 0.48 0.53 0.54 0.49 0.45 0.45
0.03 0.03 0.04 0.04 0.06 0.07 0.07 0.06 0.05 0.06 0.07 0.07 0.07 0.06 0.06 0.08 0.09 0.12 0.16 0.16 0.14 0.14 0.15 0.18 0.20 0.24 0.27 0.30 0.31 0.29 0.26 0.30 0.33 0.32 0.34 0.39 0.40 0.40 0.42 0.45 0.48 0.48 0.49 0.47
0.03 0.03 0.03 0.03 0.04 0.06 0.08 0.07 0.06 0.06 0.08 0.08 0.07 0.06 0.06 0.08 0.11 0.15 0.19 0.18 0.17 0.16 0.18 0.21 0.23 0.27 0.30 0.34 0.33 0.29 0.29 0.31 0.34 0.33 0.34 0.38 0.40 0.40 0.41 0.42 0.41 0.41 0.45 0.51
0.04 0.03 0.02 0.02 0.03 0.05 0.08 0.08 0.07 0.07 0.08 0.09 0.07 0.06 0.06 0.08 0.10 0.15 0.19 0.22 0.22 0.21 0.22 0.23 0.27 0.31 0.34 0.38 0.37 0.33 0.34 0.39 0.40 0.36 0.37 0.41 0.44 0.45 0.44 0.45 0.44 0.42 0.43 0.46
0.06 0.04 0.03 0.03 0.03 0.05 0.07 0.09 0.08 0.07 0.08 0.09 0.08 0.07 0.07 0.08 0.10 0.12 0.16 0.20 0.23 0.25 0.25 0.26 0.30 0.34 0.38 0.42 0.41 0.38 0.39 0.42 0.46 0.42 0.40 0.45 0.49 0.50 0.49 0.50 0.50 0.45 0.41 0.44
0.04 0.04 0.04 0.04 0.04 0.04 0.06 0.08 0.08 0.07 0.08 0.09 0.08 0.07 0.08 0.10 0.12 0.14 0.17 0.21 0.23 0.24 0.26 0.29 0.33 0.37 0.40 0.45 0.46 0.42 0.42 0.45 0.46 0.46 0.45 0.48 0.52 0.53 0.53 0.54 0.53 0.49 0.45 0.46
0.02 0.03 0.04 0.03 0.03 0.04 0.04 0.06 0.07 0.06 0.08 0.08 0.09 0.10 0.11 0.12 0.14 0.15 0.18 0.20 0.23 0.27 0.29 0.32 0.38 0.38 0.41 0.47 0.51 0.47 0.47 0.51 0.54 0.53 0.49 0.54 0.57 0.56 0.55 0.56 0.55 0.50 0.48 0.47
0.02 0.03 0.03 0.03 0.03 0.03 0.04 0.05 0.07 0.07 0.08 0.09 0.10 0.11 0.12 0.12 0.15 0.17 0.19 0.20 0.25 0.33 0.35 0.39 0.40 0.42 0.45 0.47 0.52 0.53 0.56 0.58 0.60 0.61 0.57 0.55 0.57 0.60 0.58 0.57 0.56 0.53 0.51 0.50
0.03 0.04 0.05 0.04 0.04 0.03 0.04 0.05 0.09 0.10 0.09 0.11 0.12 0.14 0.14 0.14 0.16 0.18 0.20 0.21 0.24 0.32 0.37 0.44 0.47 0.50 0.50 0.51 0.56 0.60 0.63 0.62 0.64 0.67 0.66 0.62 0.61 0.62 0.60 0.59 0.57 0.54 0.53 0.52
0.05 0.06 0.06 0.06 0.05 0.05 0.05 0.06 0.09 0.12 0.12 0.13 0.13 0.15 0.15 0.16 0.17 0.19 0.21 0.24 0.27 0.35 0.41 0.46 0.52 0.58 0.60 0.60 0.56 0.60 0.64 0.64 0.66 0.67 0.66 0.63 0.63 0.64 0.62 0.62 0.61 0.56 0.52 0.53
0.08 0.08 0.09 0.08 0.07 0.07 0.07 0.08 0.10 0.13 0.16 0.16 0.17 0.18 0.18 0.18 0.20 0.22 0.25 0.27 0.30 0.39 0.45 0.51 0.60 0.66 0.70 0.62 0.58 0.61 0.65 0.65 0.66 0.68 0.67 0.63 0.62 0.63 0.63 0.63 0.62 0.59 0.58 0.56
0.12 0.13 0.12 0.11 0.11 0.10 0.11 0.12 0.12 0.16 0.20 0.21 0.22 0.23 0.24 0.23 0.24 0.25 0.29 0.33 0.38 0.45 0.51 0.58 0.66 0.70 0.73 0.66 0.62 0.65 0.68 0.67 0.65 0.69 0.69 0.66 0.66 0.66 0.63 0.64 0.64 0.59 0.56 0.55
0.17 0.17 0.17 0.16 0.17 0.17 0.17 0.17 0.17 0.20 0.24 0.26 0.26 0.27 0.29 0.28 0.29 0.30 0.33 0.36 0.43 0.48 0.53 0.60 0.66 0.71 0.72 0.70 0.67 0.69 0.70 0.70 0.71 0.75 0.75 0.72 0.70 0.68 0.65 0.61 0.59 0.58 0.57 0.54
0.23 0.23 0.22 0.22 0.23 0.23 0.22 0.22 0.23 0.25 0.27 0.28 0.29 0.30 0.33 0.34 0.34 0.35 0.38 0.41 0.45 0.51 0.54 0.58 0.64 0.70 0.73 0.72 0.70 0.71 0.72 0.76 0.78 0.75 0.72 0.70 0.68 0.66 0.63 0.58 0.54 0.54 0.55 0.53
0.29 0.28 0.27 0.28 0.29 0.29 0.29 0.28 0.30 0.31 0.32 0.32 0.34 0.34 0.34 0.36 0.37 0.38 0.40 0.44 0.48 0.52 0.55 0.59 0.64 0.69 0.73 0.75 0.76 0.77 0.77 0.75 0.75 0.74 0.73 0.71 0.66 0.63 0.59 0.56 0.54 0.54 0.54 0.52